Terug naar catalogus

GEESAT 4-04

ActiefWetenschapLEO
NORAD 65122·PAYLOAD·🇨🇳 China

Gelanceerd Aug 8, 2025 vanaf Yellow Sea Launch Area

Loading…

Volgende Passages (komende 24 uur)

TLE

VersSource: Space-Track

Epoch: Sep 14, 2026, 14:23 UTC

1 65122U 25170D   26257.59987050  .00001044  00000-0  15648-3 0  9992
2 65122  49.9703  74.0370 0029413 296.1304  63.6609 14.82379598 60311

Volg GEESAT 4-04 in realtime met AllMySat

Download on the App Store